Regional Weather Roundup
Issued by NWS

Current Version | Previous Version | Text Only | Print | Product List | Glossary On
Versions: 1 2 3 4 5 6 7 8 9 10 11 12 13 14 15 16 17 18 19 20 21 22 23 24 25 26 27 28 29 30 31 32 33 34 35 36 37 38 39 40 41 42 43 44 45 46 47 48 49 50
256
ASUS45 KABQ 130710
RWRNM
NEW MEXICO REGIONAL WEATHER ROUNDUP
NATIONAL WEATHER SERVICE ALBUQUERQUE NM
1200 AM MST SAT FEB 13 2016

NOTE: "FAIR" MEANS FEW OR NO CLOUDS BELOW 12,000 FEET AGL WITH NO
       SIGNIFICANT WEATHER OR OBSTRUCTIONS TO VISION.

      THIS PRODUCT IS RELEASED AS TWO VERSIONS.  ONE VERSION NEAR
      THE TOP OF THE HOUR CONTAINING PRELIMINARY DATA FROM ALBUQUERQUE
      AND OTHER STATIONS.  A FINAL VERSION WITH ADDITIONAL DATA IS
      ISSUED ABOUT 10 MINUTES AFTER THE HOUR.

NMZ501-503-504-510>518-130800-
NORTHWEST PLATEAU/NORTHCENTRAL MOUNTAINS

CITY           SKY/WX    TMP DP  RH WIND       PRES   REMARKS
FARMINGTON     CLOUDY    31  25  78 E7        30.33F WCI  24
LOS ALAMOS     CLOUDY    46  19  32 S8        30.39F
SANTA FE       CLOUDY    34  21  59 N7        30.35S WCI  28
TAOS           CLOUDY    28  21  74 N7        30.38F WCI  21
ANGEL FIRE     FAIR      16  13  90 CALM      30.43F

$$
NMZ402-403-502-505>509-130800-
WESTCENTRAL MOUNTAINS/SOUTHWEST MOUNTAINS

CITY           SKY/WX    TMP DP  RH WIND       PRES   REMARKS
GALLUP         CLEAR     28  20  71 CALM      30.37S
GRANTS         CLEAR     23  11  60 NW13      30.39F WCI  12
SILVER CITY      N/A     39  14  35 N12       30.33S WCI  32

$$
NMZ407-409-411-412-130800-
SOUTHERN DESERTS

CITY           SKY/WX    TMP DP  RH WIND       PRES   REMARKS
LORDSBURG      FAIR      45  14  29 S6        30.26S
DEMING         PTCLDY    38  12  34 NW6       30.27F WCI  33
LAS CRUCES     PTCLDY    40  12  30 CALM      30.28F
HOLLOMAN AFB   CLOUDY    37   7  28 NE3       30.27S
ALAMOGORDO     CLOUDY    45   7  21 W5        30.28F
T OR C         CLEAR     45   6  20 W12       30.29F

$$
NMZ519>523-130800-
CENTRAL VALLEYS/CENTRAL HIGHLANDS

CITY           SKY/WX    TMP DP  RH WIND       PRES   REMARKS
ALBUQUERQUE    CLOUDY    46  20  35 NE7       30.32F
DOUBLE EAGLE   CLOUDY    38  20  50 N6        30.34F WCI  33
MORIARTY ARPT  FAIR      25  20  82 NE3       30.38S
CLINES CORNERS CLOUDY    40  20  44 S9        30.36F WCI  34
BELEN          FAIR      38  13  37 CALM      30.32S
SOCORRO        FAIR      40  12  31 W6        30.31S

$$
NMZ524>526-539-540-130800-
SOUTHCENTRAL MOUNTAINS

CITY           SKY/WX    TMP DP  RH WIND       PRES   REMARKS
RUIDOSO          N/A     45  14  29 CALM      30.40S

$$
NMZ527>531-130800-
NORTHEAST HIGHLANDS/NORTHEAST PLAINS

CITY           SKY/WX    TMP DP  RH WIND       PRES   REMARKS
LAS VEGAS      CLOUDY    38  20  48 S12       30.36F WCI  30
RATON          CLOUDY    31  20  63 N8        30.33F WCI  23
CLAYTON        CLOUDY    41  26  55 SW15      30.30F

$$
NMZ532>537-130800-
EASTCENTRAL PLAINS

CITY           SKY/WX    TMP DP  RH WIND       PRES   REMARKS
TUCUMCARI      CLOUDY    45  25  45 S6        30.31S
CANNON AFB     CLOUDY    38  25  58 SE5       30.34S WCI  35
CLOVIS AIRPORT CLOUDY    36  23  60 SE3       30.35S

$$
NMZ028-029-538-130800-
SOUTHEAST PLAINS

CITY           SKY/WX    TMP DP  RH WIND       PRES   REMARKS
ROSWELL        CLOUDY    38  23  55 CALM      30.31S
ARTESIA        CLOUDY    43  25  49 CALM      30.31S
CARLSBAD       CLOUDY    36  25  64 W3        30.29S
HOBBS          CLOUDY    41  27  56 CALM      30.33F


$$




USA.gov is the U.S. government's official web portal to all federal, state and local government web resources and services.